User: anonymous   Login
Location: Kervinic
(48.4279°N, 4.7373°W)
Time: 13:24:58
(UTC+00:00)
Language:

ERBS - Orbit

View from above orbital plane
View from above orbital plane
View from above satellite
View from above satellite

Ground track
Ground track

The orbit data is extracted from the following two-line orbital elements,

1 15354U 84108B   20191.78760157 +.00001609 +00000-0 +36189-4 0  9990
2 15354 057.0068 338.7982 0015101 090.0382 270.2406 15.49713444971028
Epoch (UTC): 09 July 2020 18:54:08
Eccentricity: 0.0015101
inclination: 57.0068°
perigee height: 407 km
apogee height: 428 km
right ascension of ascending node: 338.7982°
argument of perigee: 90.0382°
revolutions per day: 15.49713444
mean anomaly at epoch: 270.2406°
orbit number at epoch: 97102

The dashed part of the orbit path shows where the satellite is in the earth's shadow,  

DLR